CAPE
2 2 1 1 1 1 1 1 1 1 0 0 0 0 1 0 0 0 0 0 0 0 0 0 109 94 503 699 624 521 786 476 415 82 263 5 221 252 313 381 307 408 360 414 446
2 2 1 1 1 1 1 1 1 1 0 0 0 0 0 0 0 0 0 0 27 322 0 259 651 1081 1160 944 176 436 539 433 427 462 379 70 9 181 398 335 379 475 458 483 385
2 1 1 1 1 1 1 1 1 0 0 0 0 0 0 0 0 0 0 154 19 3 0 84 360 798 927 784 618 364 371 366 270 339 317 275 0 68 263 414 416 531 594 476 370
1 1 1 1 1 1 1 1 1 1 0 0 0 0 0 0 0 0 369 506 377 0 64 334 238 8 80 400 623 707 429 361 322 300 377 431 0 0 207 69 198 444 582 493 348
0 1 1 1 1 1 1 2 1 1 1 0 0 0 0 0 0 0 447 327 0 0 275 563 692 398 503 187 181 397 308 323 284 205 321 321 12 0 17 148 293 467 489 406 308
0 0 1 1 1 1 1 1 3 1 1 0 0 0 0 0 0 0 0 0 0 0 171 323 797 661 680 411 499 292 358 380 416 440 407 135 16 0 21 274 409 470 477 361 197
0 1 1 1 1 1 1 1 2 3 1 0 0 0 0 0 0 0 0 0 0 0 512 439 770 325 524 445 242 357 341 176 202 441 513 224 54 12 122 317 442 460 461 337 272
1 1 1 1 1 1 2 2 1 0 0 0 0 0 0 0 0 0 0 0 0 0 58 87 446 390 554 272 0 111 73 159 125 395 304 167 203 49 171 325 410 440 393 353 355
3 2 3 2 2 2 2 0 0 0 0 0 0 0 0 0 0 0 0 10 0 0 5 126 0 0 13 0 0 13 72 84 111 97 171 112 531 42 193 246 404 470 462 421 406
3 2 2 4 3 2 1 0 0 0 0 0 0 0 0 0 0 0 0 0 0 0 0 0 0 0 0 0 0 0 0 8 75 101 175 229 351 121 260 304 337 429 457 503 474
3 2 3 4 3 2 0 0 0 0 0 0 0 0 0 0 0 0 0 0 0 0 0 0 0 0 0 0 0 0 0 7 116 91 71 246 351 341 258 337 362 414 495 465 534
5 4 5 5 3 0 0 0 0 0 0 0 0 0 0 0 0 0 0 0 0 0 0 0 0 0 0 0 0 0 1 53 149 0 99 31 99 0 0 129 322 347 398 459 460
3 6 1 3 0 0 0 0 0 0 0 0 0 0 0 0 0 0 0 0 0 0 0 0 0 0 0 0 0 0 0 0 7 1 0 0 1 0 0 0 0 72 255 397 499
1 2 0 0 0 0 0 0 0 0 0 0 0 0 0 0 0 0 0 0 0 0 0 0 0 0 0 0 0 0 0 0 0 0 0 0 0 0 0 0 0 0 31 212 408
2 0 0 1 0 0 0 0 0 0 0 0 0 0 0 0 0 0 0 0 0 0 0 0 0 0 0 0 0 0 0 0 0 0 0 0 0 0 0 0 0 0 0 0 0
2 1 1 0 0 0 0 0 0 0 0 0 0 0 0 0 0 0 0 0 0 0 0 0 0 0 0 0 0 0 0 0 0 0 0 0 0 0 0 0 5 91 127 5 0
2 2 1 0 0 0 0 0 0 0 0 0 0 0 0 0 0 0 0 0 0 0 0 0 0 0 0 0 0 0 0 0 0 0 0 0 0 0 0 31 107 339 249 384 457
1 0 0 0 0 0 0 0 0 0 0 0 0 0 0 0 0 0 0 0 0 0 0 0 0 0 0 0 0 0 0 0 0 0 0 0 0 0 0 48 222 718 1155 1208 925
0 0 0 0 0 0 0 0 0 0 0 0 0 0 0 0 0 0 0 0 0 0 0 0 0 0 0 0 0 0 0 0 0 0 0 0 0 0 0 181 724 1241 1271 1238 1058
0 0 0 0 0 0 0 0 0 0 0 0 0 0 0 0 0 0 0 0 0 0 0 0 0 0 0 0 0 0 0 0 0 0 0 0 0 0 33 532 1136 1537 1435 1220 922
0 0 0 0 0 0 0 0 0 0 0 0 0 0 0 0 0 0 0 0 0 0 0 0 0 0 0 0 0 0 0 0 0 0 0 0 0 0 91 827 1282 1604 1570 857 251
0 0 0 0 0 0 0 0 0 0 0 0 0 0 0 0 0 0 0 0 0 0 0 0 0 0 0 0 0 0 0 0 0 0 0 0 0 0 797 1097 1342 1500 1552 1113 523
0 0 0 0 0 0 0 0 0 0 0 0 0 0 0 0 0 0 0 0 0 0 0 0 0 0 0 0 0 0 0 0 0 0 0 0 0 11 1010 1416 887 382 340 1398 1625
0 0 0 0 0 0 0 0 0 0 0 0 0 0 0 0 0 0 0 0 0 0 0 0 0 0 0 0 0 0 0 0 0 0 0 0 0 200 1359 1383 303 20 29 54 108
0 0 0 0 0 0 0 0 0 0 0 0 0 0 0 0 0 0 0 0 0 0 0 0 0 0 0 0 0 0 0 0 0 0 0 0 0 201 1319 701 17 7 66 250 244
0 0 0 0 0 0 0 0 0 0 0 0 0 0 0 0 0 0 0 0 0 0 0 0 0 0 0 0 0 0 0 0 0 0 0 0 0 31 120 0 0 0 0 2 26
0 0 0 0 0 0 0 0 0 0 0 0 0 0 0 0 0 0 0 0 0 0 0 0 0 0 0 0 0 0 0 0 0 0 0 0 0 64 15 1 0 0 0 0 0
CIN
0 0 0 0 0 0 0 0 0 0 0 0 0 0 0 0 0 0 0 0 0 0 0 0 -222 -321 -275 -227 -291 -345 -84 -26 -47 -63 -56 -86 -101 -182 -202 -172 -215 -213 -222 -261 -345
0 0 0 0 0 0 0 0 0 0 0 0 0 0 0 0 0 0 0 0 -374 -659 0 -201 -151 -161 -164 -186 -284 -193 -54 -45 -93 -93 -66 -33 -99 -135 -147 -177 -204 -258 -349 -350 -382
0 0 0 0 0 0 0 0 0 0 0 0 0 0 0 0 0 0 0 -737 -437 -87 0 -277 -224 -151 -143 -194 -208 -240 -58 -106 -129 -126 -136 -123 0 -186 -145 -158 -158 -189 -335 -366 -373
0 0 0 0 0 0 0 0 0 0 0 0 0 0 0 0 0 0 -625 -647 -669 0 -286 -223 -226 -285 -203 -144 -244 -134 -167 -146 -113 -144 -141 -105 0 0 -170 -180 -220 -242 -349 -396 -395
0 0 0 0 0 0 0 0 0 0 0 0 0 0 0 0 0 0 -579 -633 0 0 -201 -157 -153 -188 -128 -196 -272 -205 -132 -169 -161 -199 -176 -182 -73 0 -124 -282 -296 -364 -395 -393 -385
0 0 0 0 0 0 0 0 0 0 0 0 0 0 0 0 0 0 0 0 0 0 -195 -192 -127 -186 -190 -192 -174 -191 -175 -136 -132 -157 -163 -147 -67 0 -208 -354 -374 -402 -394 -413 -428
0 0 0 0 0 0 0 0 0 0 0 0 0 0 0 0 0 0 0 0 0 0 -127 -194 -173 -194 -226 -162 -231 -194 -97 -98 -109 -123 -87 -157 -151 -178 -278 -333 -360 -381 -381 -404 -424
0 0 0 0 0 0 0 0 0 0 0 0 0 0 0 0 0 0 0 0 0 0 -194 -311 -248 -238 -210 -249 0 -149 -152 -42 -112 -117 -140 -130 -20 -170 -293 -281 -324 -384 -429 -450 -434
0 0 0 0 0 0 0 0 0 0 0 0 0 0 0 0 0 0 0 -116 0 0 -408 -309 0 0 -267 0 0 -230 -97 -118 -110 -184 -153 -188 -18 -249 -328 -253 -264 -360 -399 -437 -417
0 0 0 0 0 0 0 0 0 0 0 0 0 0 0 0 0 0 0 0 0 0 0 0 0 0 0 0 0 0 0 -216 -155 -166 -160 -114 -60 -227 -305 -256 -218 -317 -367 -402 -416
0 0 0 0 0 0 0 0 0 0 0 0 0 0 0 0 0 0 0 0 0 0 0 0 0 0 0 0 0 0 0 -252 -155 -202 -186 -100 -81 -60 -193 -301 -275 -310 -339 -326 -337
0 0 0 0 0 0 0 0 0 0 0 0 0 0 0 0 0 0 0 0 0 0 0 0 0 0 0 0 0 0 -86 -173 -154 0 -199 -209 -89 -1 0 -262 -252 -307 -337 -306 -295
0 0 0 0 0 0 0 0 0 0 0 0 0 0 0 0 0 0 0 0 0 0 0 0 0 0 0 0 0 0 0 0 -80 -11 0 0 -83 0 0 0 0 -358 -330 -343 -304
0 0 0 0 0 0 0 0 0 0 0 0 0 0 0 0 0 0 0 0 0 0 0 0 0 0 0 0 0 0 0 0 0 0 0 0 0 0 0 0 0 0 -351 -323 -335
0 0 0 0 0 0 0 0 0 0 0 0 0 0 0 0 0 0 0 0 0 0 0 0 0 0 0 0 0 0 0 0 0 0 0 0 0 0 0 0 0 0 0 0 0
0 0 0 0 0 0 0 0 0 0 0 0 0 0 0 0 0 0 0 0 0 0 0 0 0 0 0 0 0 0 0 0 0 0 0 0 0 0 0 0 -91 -290 -350 -188 0
0 0 0 0 0 0 0 0 0 0 0 0 0 0 0 0 0 0 0 0 0 0 0 0 0 0 0 0 0 0 0 0 0 0 0 0 0 0 0 -310 -385 -360 -434 -479 -452
0 0 0 0 0 0 0 0 0 0 0 0 0 0 0 0 0 0 0 0 0 0 0 0 0 0 0 0 0 0 0 0 0 0 0 0 0 0 0 -255 -421 -342 -367 -436 -475
0 0 0 0 0 0 0 0 0 0 0 0 0 0 0 0 0 0 0 0 0 0 0 0 0 0 0 0 0 0 0 0 0 0 0 0 0 0 0 -207 -250 -287 -334 -402 -461
0 0 0 0 0 0 0 0 0 0 0 0 0 0 0 0 0 0 0 0 0 0 0 0 0 0 0 0 0 0 0 0 0 0 0 0 0 0 -194 -160 -254 -288 -352 -416 -447
0 0 0 0 0 0 0 0 0 0 0 0 0 0 0 0 0 0 0 0 0 0 0 0 0 0 0 0 0 0 0 0 0 0 0 0 0 0 -262 -245 -269 -288 -325 -413 -472
0 0 0 0 0 0 0 0 0 0 0 0 0 0 0 0 0 0 0 0 0 0 0 0 0 0 0 0 0 0 0 0 0 0 0 0 0 0 -222 -219 -242 -257 -272 -341 -466
0 0 0 0 0 0 0 0 0 0 0 0 0 0 0 0 0 0 0 0 0 0 0 0 0 0 0 0 0 0 0 0 0 0 0 0 0 -70 -207 -170 -263 -339 -387 -244 -234
0 0 0 0 0 0 0 0 0 0 0 0 0 0 0 0 0 0 0 0 0 0 0 0 0 0 0 0 0 0 0 0 0 0 0 0 0 -185 -138 -144 -334 -469 -480 -492 -433
0 0 0 0 0 0 0 0 0 0 0 0 0 0 0 0 0 0 0 0 0 0 0 0 0 0 0 0 0 0 0 0 0 0 0 0 0 -106 -127 -226 -392 -497 -442 -364 -373
0 0 0 0 0 0 0 0 0 0 0 0 0 0 0 0 0 0 0 0 0 0 0 0 0 0 0 0 0 0 0 0 0 0 0 0 0 -253 -388 0 0 0 0 -248 -435
0 0 0 0 0 0 0 0 0 0 0 0 0 0 0 0 0 0 0 0 0 0 0 0 0 0 0 0 0 0 0 0 0 0 0 0 0 -341 -381 -138 0 0 0 0 0
Wind_Speed
14 14 14 15 15 15 15 15 15 15 14 15 15 13 12 12 13 4 6 4 2 3 5 2 0 3 2 1 2 1 1 3 2 1 3 6 7 5 4 9 3 3 3 8 22
15 15 15 15 16 16 16 15 15 15 15 14 14 13 11 11 3 7 7 7 6 7 2 2 2 1 1 1 1 1 1 1 1 2 0 3 7 10 4 8 4 5 10 19 22
15 16 16 16 16 16 16 16 15 15 15 14 14 13 11 9 4 1 3 7 7 5 2 2 2 1 0 0 1 1 0 1 1 3 2 1 8 10 7 9 10 12 17 20 21
16 16 17 17 17 17 17 16 16 16 15 14 13 12 11 3 1 2 7 9 9 7 3 4 2 1 1 2 0 3 5 3 1 3 2 3 5 7 12 2 3 14 22 22 20
17 17 18 18 18 18 17 16 16 16 15 14 12 11 3 3 5 5 11 10 8 6 5 3 2 1 1 3 3 4 2 4 6 6 7 5 8 5 9 4 12 18 20 21 19
18 18 18 18 18 18 17 17 17 16 14 13 10 8 3 4 2 6 10 8 6 5 3 1 2 1 1 3 3 7 10 11 6 3 5 4 1 7 4 11 16 19 20 19 21
19 18 19 19 19 19 18 17 17 17 14 11 7 4 2 8 3 5 6 3 3 2 3 3 2 3 4 4 5 6 7 5 1 3 5 9 4 7 10 15 17 17 17 18 18
19 19 19 19 20 20 19 19 19 17 12 8 5 3 7 1 0 5 5 5 4 2 1 1 1 1 3 5 0 2 1 6 4 1 1 6 3 2 13 16 16 16 16 18 20
19 19 19 19 20 21 20 19 17 6 3 8 4 3 5 1 3 5 4 4 5 3 0 3 2 1 2 4 2 5 4 6 4 3 2 5 7 5 10 13 14 16 17 18 18
21 21 21 20 20 21 21 17 6 1 2 4 3 4 4 2 2 3 5 4 4 4 4 3 1 1 2 3 4 5 4 5 8 0 3 6 16 2 9 14 14 14 15 17 20
21 22 22 21 21 22 10 2 3 3 3 6 2 2 2 4 3 3 4 8 2 2 3 2 0 3 4 4 5 5 4 7 5 5 4 5 10 13 6 11 12 14 16 17 19
22 23 23 23 22 12 2 1 5 2 7 9 11 9 5 2 2 3 10 8 8 6 4 3 6 5 3 3 4 1 1 4 6 6 2 2 5 8 5 7 10 14 17 19 16
23 22 25 23 23 3 4 1 3 1 4 5 6 6 5 10 6 6 13 8 5 7 8 5 2 7 2 2 2 2 6 8 3 5 2 5 3 4 1 5 4 10 14 17 19
23 23 24 28 4 4 3 3 6 5 3 4 5 5 7 7 6 7 14 6 4 8 7 6 2 2 2 3 2 3 1 8 7 5 5 6 6 5 3 8 5 7 10 15 18
24 23 22 13 8 3 3 6 2 4 4 4 4 2 3 12 7 7 6 4 10 8 6 3 4 4 4 1 1 2 4 4 2 2 2 1 5 4 4 4 13 13 11 9 12
26 23 21 2 3 5 6 6 3 2 7 1 4 6 10 5 5 5 6 1 1 5 1 3 1 4 3 3 5 1 3 2 2 2 4 2 3 2 2 5 11 14 16 17 13
29 26 13 3 2 5 6 3 2 5 2 2 2 6 8 8 7 6 10 11 9 6 9 5 7 4 3 4 3 5 2 4 4 4 4 4 5 6 7 3 7 17 20 18 17
32 25 3 5 3 7 3 2 5 2 4 2 1 3 10 8 8 5 7 11 2 3 3 6 8 8 7 8 4 5 4 5 7 6 6 3 5 1 8 3 7 10 12 14 17
26 2 2 2 5 3 2 5 4 4 3 5 1 4 6 5 4 8 8 6 10 10 8 6 5 2 4 3 3 6 5 2 5 2 4 3 4 7 1 5 13 14 15 15 13
5 4 2 5 6 3 2 5 4 4 4 2 1 1 7 8 9 8 8 4 10 14 12 6 6 4 2 5 5 4 9 5 2 7 9 4 4 6 7 13 13 14 14 14 12
3 1 6 2 3 1 5 5 5 5 4 3 2 3 1 3 8 7 5 4 4 7 7 9 8 4 4 5 7 5 5 3 1 3 6 7 4 3 3 5 7 8 10 10 12
3 2 3 3 2 1 4 5 1 3 3 2 2 3 3 1 4 6 8 4 2 9 11 7 5 12 17 4 2 3 4 5 8 7 1 3 4 4 2 4 5 6 6 6 7
3 2 1 3 3 3 2 3 3 2 2 1 3 4 1 2 3 5 6 4 4 8 9 11 5 6 5 6 4 7 7 6 4 3 8 6 3 4 4 7 6 4 4 4 5
2 1 1 2 1 1 3 2 2 3 4 4 4 2 2 3 3 1 4 3 2 2 5 8 5 5 8 2 1 4 9 9 8 6 7 9 4 8 8 7 5 3 4 4 6
2 2 4 2 3 2 2 1 2 3 4 3 3 9 6 3 3 4 3 1 2 3 4 3 4 3 3 3 3 3 5 8 10 9 10 9 10 13 10 7 4 3 5 6 8
3 3 2 1 2 2 2 5 4 2 3 4 8 1 6 5 6 7 7 4 3 4 3 1 3 2 3 0 1 6 9 10 12 6 9 5 7 6 7 7 5 5 6 9 9
2 1 3 1 1 2 3 2 3 1 4 10 6 7 8 11 11 12 5 4 2 4 5 2 5 3 7 2 4 10 10 10 5 4 6 10 4 13 10 8 6 6 6 8 9
Wind_Direction
346 341 337 336 331 328 328 326 324 322 321 321 326 329 325 322 309 178 235 200 174 112 166 167 209 139 146 90 42 80 46 49 55 46 29 160 183 137 93 141 169 125 119 123 144
342 338 337 334 329 327 326 323 322 321 321 321 323 324 322 333 286 243 250 145 106 165 150 77 83 139 96 71 36 313 93 304 334 296 194 197 193 161 158 160 162 113 94 132 147
345 341 337 333 330 327 323 321 321 318 318 320 321 322 321 321 267 294 152 137 166 190 82 91 110 318 269 290 31 87 85 179 234 266 310 203 195 170 170 194 201 183 149 152 158
347 342 338 335 330 325 322 320 318 315 315 318 320 320 317 266 338 26 115 130 160 171 138 117 99 53 286 292 175 275 244 238 250 205 246 277 153 194 203 175 172 166 160 158 170
346 341 337 334 329 324 322 320 315 311 313 315 316 321 295 280 259 73 123 142 149 159 138 107 84 132 321 293 266 224 317 235 244 234 255 228 206 199 219 96 127 145 161 169 176
344 339 334 330 326 323 322 319 314 309 308 306 307 310 280 276 37 146 143 160 167 155 141 192 23 39 274 291 304 327 302 291 288 173 196 206 197 187 111 131 138 155 172 175 180
340 335 331 329 325 323 320 317 311 303 299 293 287 268 243 261 343 151 164 154 140 132 97 28 341 325 343 309 341 304 323 338 36 328 202 166 189 223 145 152 154 171 177 181 190
336 333 329 327 324 321 320 316 308 299 283 261 230 235 260 333 73 163 184 126 80 186 38 62 212 349 293 291 329 334 360 4 22 270 324 236 306 220 167 165 167 175 183 189 193
335 332 329 327 324 323 320 316 310 315 180 156 180 253 269 148 228 183 181 122 148 125 35 95 52 14 274 359 57 26 332 342 340 287 240 243 285 32 180 196 186 184 187 194 200
334 332 329 327 325 323 317 304 272 273 171 206 247 267 223 165 164 150 159 113 100 126 138 147 89 256 69 359 29 320 344 325 297 216 229 238 267 283 199 211 210 196 198 199 202
334 332 330 329 325 326 322 166 232 190 204 223 188 278 306 319 187 164 152 153 74 320 215 79 115 244 267 239 283 293 264 286 293 284 249 230 271 283 227 225 223 214 210 210 214
334 332 330 329 326 327 261 65 87 22 298 235 246 269 262 319 314 145 164 160 186 200 168 169 237 238 219 265 280 27 5 12 282 52 270 328 278 299 278 256 237 225 221 226 221
335 333 333 330 321 273 315 166 72 223 260 277 203 207 214 176 214 208 183 153 175 176 196 222 136 161 272 330 41 108 17 5 324 337 112 297 263 337 42 293 254 233 235 230 226
335 335 335 330 286 340 263 99 322 201 287 240 214 232 167 164 225 190 184 171 169 199 188 236 163 178 140 321 359 88 237 319 338 3 345 347 324 290 340 338 329 321 239 235 228
332 333 331 328 314 244 60 324 123 220 280 129 170 78 148 190 136 181 184 169 183 175 191 171 155 161 307 152 89 317 349 358 357 143 288 75 277 329 3 340 338 335 329 308 259
327 329 330 181 230 265 325 312 210 230 248 115 138 166 163 194 154 120 172 130 120 158 238 246 349 242 208 215 278 336 186 85 109 199 262 53 302 272 46 331 318 325 332 338 328
324 319 306 251 261 336 307 188 193 226 343 113 175 173 189 174 164 163 174 184 190 183 217 191 223 242 216 226 163 205 214 280 254 263 303 121 270 278 158 2 325 332 344 349 350
324 315 193 220 295 337 196 147 223 243 259 340 36 135 196 163 194 146 146 192 186 154 136 221 228 190 163 221 258 173 233 251 274 266 307 178 236 180 143 52 15 13 1 4 8
321 322 212 255 238 244 181 202 236 220 324 321 248 180 189 183 192 187 201 207 203 188 211 183 250 287 229 172 203 139 205 39 117 75 249 304 258 260 161 37 28 22 19 20 24
320 323 322 344 174 185 163 231 247 234 318 285 298 254 186 177 180 189 177 186 198 190 210 189 256 202 168 175 70 259 138 184 185 239 259 217 266 264 353 354 17 26 23 23 31
283 271 11 92 231 120 207 228 253 250 241 322 332 309 287 186 206 179 198 189 200 176 199 177 227 183 202 201 222 146 180 76 171 287 255 268 252 184 301 359 26 38 36 45 57
321 184 31 284 139 341 184 199 240 274 218 267 253 262 255 207 167 189 203 237 121 153 166 188 219 245 253 278 291 236 240 215 240 194 255 307 249 154 163 104 91 74 50 69 45
354 311 57 287 193 192 220 241 246 256 267 272 268 236 124 298 235 191 198 141 156 165 165 170 210 234 219 165 152 214 192 180 144 181 185 216 228 160 164 135 107 96 69 43 351
297 186 106 77 19 180 163 197 252 218 256 240 276 247 223 254 208 290 209 153 52 117 65 148 151 232 249 27 9 220 187 175 209 208 187 224 206 187 184 159 120 82 62 47 20
4 55 347 169 182 252 252 196 245 261 232 229 217 231 202 232 197 214 215 210 95 105 72 238 219 208 269 238 239 262 222 192 211 233 229 259 217 189 182 161 115 56 57 62 34
8 347 355 295 292 231 194 203 203 255 236 243 233 250 210 235 223 208 186 221 190 138 141 148 169 193 263 335 328 276 260 250 234 228 246 241 218 165 140 134 125 76 68 65 55
11 249 279 72 204 199 229 205 193 14 240 252 293 305 264 257 268 255 265 302 320 182 142 144 143 165 262 3 314 264 264 236 223 218 225 196 216 165 163 147 119 95 80 68 61